Location: Maiden
(35.5760°N, 81.2120°W)
Time: 10:12:56
(UTC-04:00)

Vanguard 2 - Pass Details

Date: 05 August 2021
Orbit: 552 x 2938 km, 32.9° (Epoch: 18 September)

Event Time Altitude Azimuth Distance (km) Brightness Sun altitude
Exits shadow 05:28:52 21° 240° (WSW) 1,256 8.0 -13.1°
Maximum altitude 05:31:16 53° 171° (S) 691 7.1 -12.7°
Drops below altitude 10° 05:35:32 10° 94° (E) 2,029 10.6 -11.9°
Sets 05:38:12 0° 89° (E) 3,140 11.8 -11.5°
